Whiteman AFB, MO

6:52 AM CDT on April 22, 2018 (GMT -0500)
Whiteman Air Force Base

Weather History for KSZL - October, 2010

Change the Weather History Date:

Sunday, October 24, 2010

  Actual Average Record
Temperature  
Mean Temperature 63 °F -  
Max Temperature 71 °F 63 °F 82 °F (2012)
Min Temperature 55 °F 45 °F 26 °F (2006)
Degree Days  
Heating Degree Days 2    
Growing Degree Days 13 (Base 50)    
Moisture  
Dew Point 55 °F    
Average Humidity 80    
Maximum Humidity 92    
Minimum Humidity 59    
Precipitation  
Precipitation 0.00 in - - ()
Sea Level Pressure  
Sea Level Pressure 29.72 in    
Wind  
Wind Speed 14 mph (SSW)    
Max Wind Speed 21 mph    
Max Gust Speed 29 mph    
Visibility 9 miles    
Events      
Averages and records for this station are not official NWS values.
T = Trace of Precipitation, MM = Missing Value Source: NWS Daily Summary

Daily Weather History Graph

Daily Weather History Graph

Search for Another Location

Airport or City:

Astronomy

Oct. 24, 2010 Rise Set
Actual Time 7:32 AM CDT 6:23 PM CDT
Civil Twilight 7:05 AM CDT 6:50 PM CDT
Nautical Twilight 6:34 AM CDT 7:21 PM CDT
Astronomical Twilight 6:03 AM CDT 7:52 PM CDT
Moon 7:08 PM CDT (10/24) 9:13 AM CDT (10/24)
Length of Visible Light 11h 45m
Length of Day
10h 50m
Full, 97% of the Moon is Illuminated
Oct 24
Full
Oct 30
Last Quarter
Nov 5
New
Nov 13
First Quarter
Nov 21
Full

Hourly Weather History & Observations

Time (CDT) Temp. Dew Point Humidity Pressure Visibility Wind Dir Wind Speed Gust Speed Precip Events Conditions
12:55 AM 63.1 °F 55.6 °F 76% 29.78 in 10.0 mi South 13.8 mph - N/A   Mostly Cloudy
1:55 AM 61.7 °F 55.9 °F 81% 29.77 in 10.0 mi SSW 12.7 mph - N/A   Scattered Clouds
2:55 AM 61.2 °F 55.6 °F 82% 29.76 in 10.0 mi South 13.8 mph - N/A   Clear
3:55 AM 60.4 °F 55.4 °F 83% 29.75 in 10.0 mi South 15.0 mph - N/A   Clear
4:55 AM 59.4 °F 54.9 °F 85% 29.73 in 10.0 mi South 13.8 mph - N/A   Partly Cloudy
5:55 AM 58.3 °F 54.5 °F 87% 29.74 in 10.0 mi SSW 13.8 mph - N/A   Clear
6:21 AM 59.0 °F 53.6 °F 82% 29.74 in 8.0 mi SSW 12.7 mph - N/A   Clear
6:40 AM 59.0 °F 55.4 °F 88% 29.74 in 7.0 mi SSW 15.0 mph - N/A   Mostly Cloudy
6:55 AM 58.8 °F 54.9 °F 87% 29.74 in 7.0 mi SSW 15.0 mph - N/A   Mostly Cloudy
7:12 AM 59.0 °F 55.4 °F 88% 29.73 in 6.0 mi SSW 17.3 mph 23.0 mph N/A   Haze
7:22 AM 59.0 °F 55.4 °F 88% 29.73 in 5.0 mi SSW 16.1 mph 24.2 mph N/A   Haze
7:35 AM 59.0 °F 55.4 °F 88% 29.73 in 10.0 mi SSW 18.4 mph - N/A   Overcast
7:55 AM 60.3 °F 55.0 °F 83% 29.73 in 10.0 mi SSW 19.6 mph - N/A   Overcast
8:55 AM 60.4 °F 55.2 °F 83% 29.76 in 10.0 mi SW 15.0 mph 24.2 mph N/A   Overcast
9:55 AM 61.5 °F 55.8 °F 81% 29.76 in 10.0 mi SSW 17.3 mph - N/A   Haze
10:55 AM 62.8 °F 56.1 °F 79% 29.76 in 10.0 mi SW 13.8 mph - N/A   Overcast
11:55 AM 64.0 °F 56.1 °F 75% 29.74 in 10.0 mi SSW 16.1 mph - N/A   Overcast
12:55 PM 66.7 °F 56.1 °F 69% 29.73 in 10.0 mi SSW 19.6 mph - N/A   Mostly Cloudy
1:55 PM 70.0 °F 55.9 °F 61% 29.70 in 10.0 mi SSW 20.7 mph 28.8 mph N/A   Mostly Cloudy
2:55 PM 70.2 °F 55.2 °F 59% 29.68 in 10.0 mi SW 18.4 mph - N/A   Mostly Cloudy
3:55 PM 71.1 °F 55.9 °F 59% 29.67 in 10.0 mi SSW 18.4 mph - N/A   Partly Cloudy
4:55 PM 70.2 °F 56.1 °F 61% 29.68 in 10.0 mi SW 13.8 mph - N/A   Mostly Cloudy
5:55 PM 68.5 °F 55.8 °F 64% 29.66 in 3.0 mi SW 9.2 mph - N/A   Haze
6:55 PM 60.6 °F 54.9 °F 81% 29.66 in 10.0 mi South 8.1 mph - N/A   Clear
7:55 PM 59.0 °F 55.0 °F 87% 29.66 in 10.0 mi South 8.1 mph - N/A   Clear
8:55 PM 60.4 °F 56.3 °F 86% 29.67 in 10.0 mi SSW 6.9 mph - N/A   Mostly Cloudy
9:55 PM 57.4 °F 54.7 °F 91% 29.66 in 10.0 mi SSW 8.1 mph - N/A   Partly Cloudy
10:55 PM 55.2 °F 53.1 °F 92% 29.65 in 10.0 mi SSW 6.9 mph - N/A   Clear
11:55 PM 55.9 °F 53.8 °F 92% 29.65 in 10.0 mi SSW 6.9 mph - N/A   Clear